"Pseudo-MPEC" for C1EWFP2

Created 2019 Nov 13 10:07:05 UT using Find_Orb

Click here for an explanation of pseudo-MPECs

 
 Astrometry: 
     C1EWFP2  C2019 11 05.38560 04 04 35.94 +21 27 23.4    ~B5A7       VNEOCPG96
     C1EWFP2  C2019 11 05.39066 04 04 33.85 +21 27 31.7    ~B5A7 20.8 GVNEOCPG96
     C1EWFP2  C2019 11 05.39572 04 04 31.70 +21 27 38.8    ~B5A7 21.5 GVNEOCPG96
     C1EWFP2  C2019 11 05.40080 04 04 29.56 +21 27 46.0    ~B5A7 21.8 GVNEOCPG96
     C1EWFP2  C2019 11 05.42621 04 04 19.14 +21 28 20.9    ~B5BM       VNEOCPG96
     C1EWFP2  C2019 11 05.43116704 04 16.15 +21 28 15.4    ~B5B7 21.5 GVNEOCPH01
     C1EWFP2  C2019 11 05.43388 04 04 16.01 +21 28 31.0    ~B5BM       VNEOCPG96
     C1EWFP2  C2019 11 05.43843504 04 13.30 +21 28 24.5    ~B5B7 21.2 GVNEOCPH01
     C1EWFP2  C2019 11 05.44570504 04 10.49 +21 28 33.4    ~B5B7 21.8 GVNEOCPH01
     C1EWFP2  C2019 11 05.44946 04 04 09.85 +21 28 50.7    ~B5BM 21.8 GVNEOCPG96
     C1EWFP2  C2019 11 05.45421104 04 07.23 +21 28 43.4    ~B5B7 21.3 GVNEOCPH01

Station data:
(G96) Mt. Lemmon Survey  (N32.442754 W110.788720)  US/Arizona.  Observers T.
   A. Pruyne, B. M. Africano, E. J. Christensen, G. A. Farneth, D. C. Fuls,
   A. R. Gibbs, A. D. Grauer, H. Gröller, J. A. Johnson, R. A. Kowalski, S.
   M. Larson, G. J. Leonard, D. Rankin, R. L. Seaman, F. C. Shelly. 1.5-m
   reflector + 10K CCD.
(H01) Magdalena Ridge Observatory, Socorro  (N33.984833 W107.189333)  US/New
   Mexico.  Observers W. H. Ryan, E. V. Ryan. Measurer W. H. Ryan. 2.4-m
   f/8.9 reflector + CCD.

Orbital elements:  C1EWFP2
   Perihelion 2019 Sep 23.836002 +/- 3.39 TT = 20:03:50 (JD 2458750.336002)
Epoch 2019 Nov  5.0 TT = JDT 2458792.5   Earth MOID: 0.0011   Ma: 0.0012
M  19.01058949 +/- 8                (J2000 ecliptic)          AutoNEOCP
n   0.45087255 +/- 0.151            Peri.  303.89415 +/- 0.26
a   1.68435455 +/- 0.377            Node    42.11800 +/- 0.020
e   0.4868149 +/- 0.135             Incl.    1.09099 +/- 0.033
P   2.19/798.44d           H 28.7   G  0.15   U 11.5  
q 0.86438550 +/- 0.0293    Q 2.50432360 +/- 0.679
From 11 observations 2019 Nov. 5 (98.8 min); mean residual 0".21
Residuals in arcseconds: 
191105 G96  .32-  .29-    191105 G96  .34+  .16-    191105 H01  .16+  .02+    
191105 G96  .37+  .42+    191105 H01  .14-  .02-    191105 G96  .28-  .24+    
191105 G96  .08+  .06+    191105 G96  .27-  .02-    191105 H01  .15+  .09-    
191105 G96  .10-  .11-    191105 H01  .04-  .01-    

Ephemerides (geocentric):
Date (UTC) HH   RA              Dec         delta   r     elong  mag " sig PA
---- -- -- --  -------------   -----------  ------ ------ -----  --- ---- ---
2019 11 13 10  03 51 03.942   +22 33 16.59  .07860 1.0670 169.7 24.0  315 120
2019 11 13 11  03 51 02.291   +22 33 21.19  .07888 1.0673 169.8 24.0  316 120
2019 11 13 12  03 51 00.648   +22 33 25.74  .07916 1.0676 169.8 24.0  317 120
2019 11 13 13  03 50 59.014   +22 33 30.23  .07944 1.0679 169.9 24.0  318 120
2019 11 13 14  03 50 57.388   +22 33 34.67  .07972 1.0682 169.9 24.0  320 120
2019 11 13 15  03 50 55.771   +22 33 39.06  .08001 1.0684 169.9 24.0  321 120
2019 11 13 16  03 50 54.161   +22 33 43.40  .08029 1.0687 170.0 24.0  322 120
2019 11 13 17  03 50 52.560   +22 33 47.68  .08057 1.0690 170.0 24.0  323 120
2019 11 13 18  03 50 50.967   +22 33 51.91  .08085 1.0693 170.1 24.0  324 120
2019 11 13 19  03 50 49.381   +22 33 56.10  .08114 1.0696 170.1 24.0  325 120
2019 11 13 20  03 50 47.804   +22 34 00.23  .08142 1.0698 170.2 24.0  326 120
2019 11 13 21  03 50 46.234   +22 34 04.31  .08170 1.0701 170.2 24.0  328 120
2019 11 13 22  03 50 44.672   +22 34 08.34  .08199 1.0704 170.3 24.0  329 120
2019 11 13 23  03 50 43.118   +22 34 12.32  .08227 1.0707 170.3 24.0  330 120
2019 11 14 00  03 50 41.571   +22 34 16.26  .08255 1.0710 170.4 24.1  331 120
2019 11 14 01  03 50 40.031   +22 34 20.15  .08283 1.0712 170.4 24.1  332 120
2019 11 14 02  03 50 38.499   +22 34 23.98  .08312 1.0715 170.4 24.1  333 120
2019 11 14 03  03 50 36.975   +22 34 27.78  .08340 1.0718 170.5 24.1  334 120
2019 11 14 04  03 50 35.458   +22 34 31.52  .08368 1.0721 170.5 24.1  335 120
2019 11 14 05  03 50 33.947   +22 34 35.22  .08397 1.0724 170.6 24.1  336 120
2019 11 14 06  03 50 32.444   +22 34 38.87  .08425 1.0726 170.6 24.1  337 120
2019 11 14 07  03 50 30.949   +22 34 42.48  .08453 1.0729 170.7 24.1  338 120
2019 11 14 08  03 50 29.460   +22 34 46.04  .08482 1.0732 170.7 24.1  339 120
2019 11 14 09  03 50 27.978   +22 34 49.56  .08510 1.0735 170.8 24.1  341 120
2019 11 14 10  03 50 26.503   +22 34 53.03  .08539 1.0738 170.8 24.1  342 120
2019 11 14 11  03 50 25.034   +22 34 56.46  .08567 1.0741 170.9 24.1  343 120
2019 11 14 12  03 50 23.573   +22 34 59.85  .08595 1.0743 170.9 24.1  344 120
2019 11 14 13  03 50 22.118   +22 35 03.19  .08624 1.0746 170.9 24.1  345 120
2019 11 14 14  03 50 20.670   +22 35 06.49  .08652 1.0749 171.0 24.1  346 120
2019 11 14 15  03 50 19.228   +22 35 09.75  .08681 1.0752 171.0 24.1  347 119
2019 11 14 16  03 50 17.793   +22 35 12.96  .08709 1.0755 171.1 24.2  348 119
2019 11 14 17  03 50 16.365   +22 35 16.14  .08737 1.0757 171.1 24.2  349 119
2019 11 14 18  03 50 14.942   +22 35 19.27  .08766 1.0760 171.2 24.2  350 119
2019 11 14 19  03 50 13.527   +22 35 22.36  .08794 1.0763 171.2 24.2  351 119
2019 11 14 20  03 50 12.117   +22 35 25.41  .08823 1.0766 171.3 24.2  352 119
2019 11 14 21  03 50 10.714   +22 35 28.42  .08851 1.0769 171.3 24.2  353 119
2019 11 14 22  03 50 09.317   +22 35 31.39  .08880 1.0772 171.3 24.2  354 119
2019 11 14 23  03 50 07.926   +22 35 34.32  .08908 1.0774 171.4 24.2  355 119
2019 11 15 00  03 50 06.541   +22 35 37.22  .08937 1.0777 171.4 24.2  356 119
2019 11 15 01  03 50 05.162   +22 35 40.07  .08965 1.0780 171.5 24.2  357 119
2019 11 15 02  03 50 03.789   +22 35 42.88  .08994 1.0783 171.5 24.2  358 119
2019 11 15 03  03 50 02.422   +22 35 45.66  .09022 1.0786 171.6 24.2  359 119
2019 11 15 04  03 50 01.061   +22 35 48.40  .09051 1.0788 171.6 24.2  360 119
2019 11 15 05  03 49 59.706   +22 35 51.10  .09079 1.0791 171.7 24.2  361 119
2019 11 15 06  03 49 58.357   +22 35 53.77  .09108 1.0794 171.7 24.2  361 119
2019 11 15 07  03 49 57.013   +22 35 56.39  .09136 1.0797 171.7 24.2  362 119
2019 11 15 08  03 49 55.675   +22 35 58.98  .09165 1.0800 171.8 24.2  363 119
2019 11 15 09  03 49 54.343   +22 36 01.54  .09193 1.0803 171.8 24.2  364 119